KG4S Weather Reports


time (UTC)temp
C
wind
direction
speed
KPH
gust
KPH
rain 1hr
cm
rain 24hr
cm
rain mn
cm
humidity
%
barometer
mb
20260505102107 15 280 3.2 8.0 0.00 0.00 0.00 61 1011.2
20260505101607 15 250 4.8 8.0 0.00 0.00 0.00 61 1011.1
20260505101107 15 250 3.2 8.0 0.00 0.00 0.00 60 1011.1
20260505100607 15 229 4.8 8.0 0.00 0.00 0.00 61 1011.0
20260505100107 15 243 3.2 4.8 0.00 0.00 0.00 61 1010.9
20260505095607 15 235 3.2 4.8 0.00 0.00 0.00 60 1011.0
20260505095107 15 243 3.2 8.0 0.00 0.00 0.00 60 1010.9
20260505094607 15 252 3.2 9.7 0.00 0.00 0.00 60 1010.9
20260505094107 15 145 3.2 6.4 0.00 0.00 0.00 61 1010.8
20260505093607 15 185 3.2 8.0 0.00 0.00 0.00 60 1010.8
20260505093127 15 227 3.2 8.0 0.00 0.00 0.00 60 1010.9
20260505092607 15 244 3.2 9.7 0.00 0.00 0.00 59 1011.0
20260505092107 15 226 4.8 9.7 0.00 0.00 0.00 59 1010.9
20260505091607 15 218 3.2 6.4 0.00 0.00 0.00 59 1011.0
20260505091107 16 240 4.8 8.0 0.00 0.00 0.00 59 1010.8
20260505090607 15 219 3.2 8.0 0.00 0.00 0.00 59 1010.8
20260505090127 15 266 1.6 4.8 0.00 0.00 0.00 60 1010.8
20260505085607 15 233 3.2 4.8 0.00 0.00 0.00 61 1010.7
20260505085107 15 183 1.6 4.8 0.00 0.00 0.00 61 1010.8
20260505084627 15 226 1.6 6.4 0.00 0.00 0.00 61 1010.7
20260505084127 15 171 1.6 6.4 0.00 0.00 0.00 61 1010.8
20260505083632 15 193 1.6 3.2 0.00 0.00 0.00 62 1010.7
20260505083119 15 85 0.0 4.8 0.00 0.00 0.00 62 1010.8
20260505082608 15 232 1.6 3.2 0.00 0.00 0.00 62 1010.8
20260505082200 15 220 0.0 3.2 0.00 0.00 0.00 63 1010.8
20260505081607 15 0.0 3.2 0.00 0.00 0.00 62 1010.9
20260505081107 15 229 0.0 1.6 0.00 0.00 0.00 62 1010.8
20260505080607 15 0.0 3.2 0.00 0.00 0.00 62 1010.7
20260505080106 15 245 0.0 4.8 0.00 0.00 0.00 62 1010.7
20260505075606 15 206 0.0 4.8 0.00 0.00 0.00 61 1010.7
20260505075106 16 173 0.0 3.2 0.00 0.00 0.00 61 1010.6
20260505074606 16 119 1.6 3.2 0.00 0.00 0.00 60 1010.6
20260505074106 16 153 1.6 4.8 0.00 0.00 0.00 60 1010.6
20260505073606 16 177 0.0 3.2 0.00 0.00 0.00 60 1010.6
20260505073106 16 295 1.6 6.4 0.00 0.00 0.00 59 1010.5
20260505072606 16 212 0.0 4.8 0.00 0.00 0.00 59 1010.5
20260505072106 16 220 1.6 4.8 0.00 0.00 0.00 59 1010.6
20260505071606 16 207 1.6 4.8 0.00 0.00 0.00 59 1010.5
20260505071106 16 130 1.6 4.8 0.00 0.00 0.00 60 1010.6
20260505070606 16 246 1.6 4.8 0.00 0.00 0.00 59 1010.6
20260505070106 16 0.0 4.8 0.00 0.00 0.00 59 1010.5
20260505065606 16 196 1.6 4.8 0.00 0.00 0.00 59 1010.5
20260505065106 16 179 1.6 3.2 0.00 0.00 0.00 58 1010.5
20260505064606 16 236 1.6 4.8 0.00 0.00 0.00 58 1010.5
20260505064106 16 226 3.2 4.8 0.00 0.00 0.00 58 1010.6
20260505063606 16 115 0.0 6.4 0.00 0.00 0.00 58 1010.6
20260505063106 16 227 1.6 4.8 0.00 0.00 0.00 58 1010.6
20260505062606 17 220 1.6 6.4 0.00 0.00 0.00 58 1010.6
20260505062106 17 177 1.6 3.2 0.00 0.00 0.00 57 1010.7
20260505061606 17 234 1.6 4.8 0.00 0.00 0.00 57 1010.6
20260505061106 17 221 0.0 3.2 0.00 0.00 0.00 57 1010.7
20260505060606 17 159 1.6 4.8 0.00 0.00 0.00 57 1010.8
20260505060107 17 131 1.6 4.8 0.00 0.00 0.00 57 1010.6
20260505055607 17 162 1.6 6.4 0.00 0.00 0.00 56 1010.8
20260505055127 17 151 1.6 3.2 0.00 0.00 0.00 57 1010.9
20260505054607 17 201 0.0 4.8 0.00 0.00 0.00 57 1010.8
20260505054107 17 209 1.6 6.4 0.00 0.00 0.00 57 1010.9
20260505053607 17 200 1.6 3.2 0.00 0.00 0.00 57 1010.9
20260505053107 17 0.0 1.6 0.00 0.00 0.00 57 1010.9
20260505052607 17 204 1.6 4.8 0.00 0.00 0.00 57 1010.9
20260505052107 17 0.0 3.2 0.00 0.00 0.00 57 1010.9
20260505051607 17 266 1.6 3.2 0.00 0.00 0.00 57 1010.9
20260505051107 17 218 0.0 3.2 0.00 0.00 0.00 57 1010.8
20260505050607 17 0.0 1.6 0.00 0.00 0.00 57 1010.9
20260505050107 17 0.0 1.6 0.00 0.00 0.00 56 1011.0
20260505041627 18 231 3.2 6.4 0.00 0.00 0.00 52 1010.6
20260505041128 18 249 3.2 6.4 0.00 0.00 0.00 52 1010.6
20260505040607 18 234 3.2 8.0 0.00 0.00 0.00 51 1010.3
20260505040106 18 242 3.2 6.4 0.00 0.00 0.00 51 1010.3
20260505035606 19 237 4.8 8.0 0.00 0.00 0.00 51 1010.3
20260505035126 19 232 4.8 9.7 0.00 0.00 0.00 50 1010.2
20260505034606 19 228 4.8 9.7 0.00 0.00 0.00 50 1010.1
20260505034106 20 230 4.8 9.7 0.00 0.00 0.00 49 1010.1
20260505033626 19 223 3.2 9.7 0.00 0.00 0.00 50 1010.1
20260505033106 19 231 3.2 9.7 0.00 0.00 0.00 50 1010.0
20260505032606 20 228 6.4 9.7 0.00 0.00 0.00 49 1010.0
20260505032106 20 224 6.4 11.3 0.00 0.00 0.00 49 1010.0
20260505031606 20 232 6.4 11.3 0.00 0.00 0.00 50 1009.8
20260505031106 20 233 4.8 8.0 0.00 0.00 0.00 50 1009.8
20260505030606 20 233 1.6 8.0 0.00 0.00 0.00 49 1009.6
20260505030106 20 215 3.2 9.7 0.00 0.00 0.00 49 1009.6
20260505025606 20 233 3.2 11.3 0.00 0.00 0.00 50 1009.5
20260505025107 20 227 4.8 9.7 0.00 0.00 0.00 49 1009.4
20260505024626 20 214 3.2 9.7 0.00 0.00 0.00 49 1009.4
20260505024106 20 225 6.4 11.3 0.00 0.00 0.00 49 1009.3
20260505023606 20 221 4.8 9.7 0.00 0.00 0.00 49 1009.3
20260505023226 20 211 0.0 9.7 0.00 0.00 0.00 49 1009.1
20260505022606 20 228 4.8 9.7 0.00 0.00 0.00 49 1009.1
20260505022106 20 244 4.8 9.7 0.00 0.00 0.00 49 1009.0
20260505021606 20 225 3.2 9.7 0.00 0.00 0.00 49 1008.8
20260505021106 20 207 4.8 9.7 0.00 0.00 0.00 50 1008.7
20260505020646 20 202 1.6 8.0 0.00 0.00 0.00 50 1008.8
20260505020106 20 193 3.2 8.0 0.00 0.00 0.00 51 1009.0
20260505015606 20 219 1.6 8.0 0.00 0.00 0.00 51 1009.0
20260505015106 20 235 1.6 6.4 0.00 0.00 0.00 51 1009.0
20260505014606 20 223 1.6 6.4 0.00 0.00 0.00 51 1009.0
20260505014126 20 233 1.6 4.8 0.00 0.00 0.00 51 1009.0
20260505013606 20 273 0.0 3.2 0.00 0.00 0.00 51 1009.0
20260505013106 20 207 0.0 4.8 0.00 0.00 0.00 51 1009.0
20260505012606 20 257 1.6 4.8 0.00 0.00 0.00 50 1008.9
20260505012106 20 229 1.6 6.4 0.00 0.00 0.00 50 1008.9
20260505011606 20 238 0.0 4.8 0.00 0.00 0.00 50 1008.9
20260505011106 20 200 0.0 4.8 0.00 0.00 0.00 50 1008.8
20260505010626 20 0.0 3.2 0.00 0.00 0.00 50 1008.8
20260505010106 20 227 0.0 1.6 0.00 0.00 0.00 49 1008.8
20260505005606 20 0.0 3.2 0.00 0.00 0.00 49 1008.9
20260505005106 20 0.0 3.2 0.00 0.00 0.00 49 1008.9
20260505004606 20 207 1.6 3.2 0.00 0.00 0.00 49 1008.9
20260505004106 20 200 0.0 4.8 0.00 0.00 0.00 49 1009.0
20260505003606 20 0.0 3.2 0.00 0.00 0.00 48 1009.0
20260505003106 20 123 0.0 3.2 0.00 0.00 0.00 48 1009.0
20260505002606 21 219 1.6 3.2 0.00 0.00 0.00 48 1009.0
20260505002106 21 228 0.0 3.2 0.00 0.00 0.00 48 1009.1
20260505001606 21 321 0.0 3.2 0.00 0.00 0.00 47 1009.2
20260505001126 21 344 1.6 3.2 0.00 0.00 0.00 47 1009.2
20260505000626 21 189 0.0 4.8 0.00 0.00 0.00 46 1009.2
20260505000126 21 0.0 3.2 0.00 0.00 0.00 45 1009.2
20260504235626 22 194 1.6 4.8 0.00 0.00 0.00 45 1009.4
20260504235106 22 250 1.6 6.4 0.00 0.00 0.00 44 1009.5
20260504234606 22 253 3.2 9.7 0.00 0.00 0.00 44 1009.4
20260504234106 22 253 4.8 8.0 0.00 0.00 0.00 43 1009.5
20260504233606 22 240 4.8 8.0 0.00 0.00 0.00 42 1009.6
20260504233106 22 277 3.2 6.4 0.00 0.00 0.00 43 1009.6
20260504232606 23 267 1.6 16.1 0.00 0.00 0.00 42 1009.7
20260504232106 23 245 6.4 16.1 0.00 0.00 0.00 42 1009.7
20260504231646 23 254 4.8 8.0 0.00 0.00 0.00 43 1009.7
20260504231106 23 254 6.4 9.7 0.00 0.00 0.00 43 1009.8
20260504230606 23 266 4.8 6.4 0.00 0.00 0.00 44 1009.8
20260504230106 23 255 3.2 9.7 0.00 0.00 0.00 44 1009.8
20260504225626 23 242 3.2 8.0 0.00 0.00 0.00 43 1009.7
20260504225126 23 237 3.2 6.4 0.00 0.00 0.00 42 1009.8
20260504224606 23 261 3.2 6.4 0.00 0.00 0.00 43 1009.9
20260504224106 23 233 4.8 12.9 0.00 0.00 0.00 43 1009.8
20260504223606 23 250 4.8 9.7 0.00 0.00 0.00 42 1009.9
20260504223126 23 251 4.8 11.3 0.00 0.00 0.00 42 1009.8
20260504222606 23 245 6.4 12.9 0.00 0.00 0.00 41 1009.8
20260504222106 23 241 6.4 14.5 0.00 0.00 0.00 41 1009.8
20260504221606 23 252 6.4 12.9 0.00 0.00 0.00 40 1009.8
20260504221106 23 231 6.4 14.5 0.00 0.00 0.00 40 1009.8
20260504220606 23 244 6.4 12.9 0.00 0.00 0.00 41 1009.8
20260504220106 23 236 8.0 14.5 0.00 0.00 0.00 40 1009.8
20260504215646 23 231 8.0 14.5 0.00 0.00 0.00 41 1009.7
20260504215106 23 240 4.8 9.7 0.00 0.00 0.00 41 1009.9
20260504214606 23 249 6.4 12.9 0.00 0.00 0.00 41 1009.9
20260504214106 23 245 8.0 14.5 0.00 0.00 0.00 40 1009.8
20260504213606 23 248 8.0 16.1 0.00 0.00 0.00 41 1009.9
20260504213126 23 244 6.4 11.3 0.00 0.00 0.00 41 1009.8
20260504212606 23 240 4.8 12.9 0.00 0.00 0.00 41 1009.9
20260504212106 24 241 6.4 14.5 0.00 0.00 0.00 42 1009.9
20260504211606 24 252 9.7 19.3 0.00 0.00 0.00 41 1009.9
20260504211126 24 248 6.4 14.5 0.00 0.00 0.00 42 1009.9
20260504210524 23 246 8.0 17.7 0.00 0.00 0.00 41 1009.9
20260504210106 23 258 8.0 12.9 0.00 0.00 0.00 42 1009.9
20260504205606 23 243 8.0 14.5 0.00 0.00 0.00 42 1010.0
20260504205126 23 254 8.0 16.1 0.00 0.00 0.00 42 1010.0
20260504204606 23 261 8.0 16.1 0.00 0.00 0.00 42 1010.1
20260504204106 23 245 8.0 17.7 0.00 0.00 0.00 42 1010.1
20260504203606 23 243 11.3 17.7 0.00 0.00 0.00 42 1010.3
20260504203106 23 240 4.8 12.9 0.00 0.00 0.00 42 1010.3
20260504202606 23 246 9.7 19.3 0.00 0.00 0.00 42 1010.4
20260504202106 24 246 6.4 14.5 0.00 0.00 0.00 43 1010.4
20260504201606 23 267 3.2 9.7 0.00 0.00 0.00 44 1010.5
20260504201106 23 256 6.4 11.3 0.00 0.00 0.00 43 1010.6
20260504200606 23 261 6.4 16.1 0.00 0.00 0.00 42 1010.8
20260504200106 23 249 8.0 17.7 0.00 0.00 0.00 42 1010.8
20260504195606 23 250 6.4 12.9 0.00 0.00 0.00 44 1010.9
20260504195106 23 228 4.8 9.7 0.00 0.00 0.00 44 1010.9
20260504194606 23 251 11.3 17.7 0.00 0.00 0.00 44 1011.0
20260504194126 23 237 3.2 12.9 0.00 0.00 0.00 44 1011.1
20260504193606 23 258 8.0 16.1 0.00 0.00 0.00 46 1011.0
20260504193106 23 238 8.0 16.1 0.00 0.00 0.00 47 1011.1
20260504192606 23 238 4.8 12.9 0.00 0.00 0.00 47 1011.2
20260504192128 23 226 6.4 12.9 0.00 0.00 0.00 46 1011.1
20260504191606 23 211 4.8 17.7 0.00 0.00 0.00 47 1011.2
20260504191107 23 227 4.8 16.1 0.00 0.00 0.00 47 1011.3
20260504190606 22 237 6.4 14.5 0.00 0.00 0.00 47 1011.3
20260504190106 22 230 9.7 19.3 0.00 0.00 0.00 47 1011.4
20260504185606 22 244 8.0 16.1 0.00 0.00 0.00 48 1011.4
20260504185106 22 211 8.0 16.1 0.00 0.00 0.00 47 1011.4
20260504184606 22 245 3.2 8.0 0.00 0.00 0.00 48 1011.4
20260504184106 22 229 6.4 14.5 0.00 0.00 0.00 48 1011.5
20260504183606 22 226 4.8 12.9 0.00 0.00 0.00 48 1011.4
20260504183106 22 216 8.0 16.1 0.00 0.00 0.00 48 1011.4
20260504182606 22 218 4.8 16.1 0.00 0.00 0.00 49 1011.5
20260504182106 22 222 4.8 11.3 0.00 0.00 0.00 50 1011.5
20260504181606 21 235 6.4 12.9 0.00 0.00 0.00 51 1011.5
20260504181126 21 221 4.8 11.3 0.00 0.00 0.00 51 1011.6
20260504180606 21 222 4.8 14.5 0.00 0.00 0.00 51 1011.6
20260504180106 21 223 4.8 14.5 0.00 0.00 0.00 53 1011.7
20260504175606 21 177 4.8 9.7 0.00 0.00 0.00 52 1011.6
20260504175106 21 193 4.8 11.3 0.00 0.00 0.00 53 1011.7
20260504174626 20 244 4.8 16.1 0.00 0.00 0.00 54 1011.8
20260504174106 20 224 3.2 9.7 0.00 0.00 0.00 54 1011.8
20260504173606 20 175 4.8 9.7 0.00 0.00 0.00 54 1011.8
20260504173106 20 216 4.8 17.7 0.00 0.00 0.00 55 1011.9
20260504172626 20 197 4.8 12.9 0.00 0.00 0.00 55 1011.9
20260504172106 20 203 6.4 14.5 0.00 0.00 0.00 55 1012.0
20260504171606 20 192 4.8 9.7 0.00 0.00 0.00 56 1012.1
20260504171106 19 216 3.2 9.7 0.00 0.00 0.00 56 1012.2
20260504170606 19 234 6.4 8.0 0.00 0.00 0.00 57 1012.3
20260504170126 19 239 4.8 12.9 0.00 0.00 0.00 56 1012.3
20260504160106 17 234 3.2 9.7 0.00 0.00 0.00 62 1013.1
20260504151107 15 237 6.4 11.3 0.00 0.00 0.00 65 1013.5
20260504150606 15 212 6.4 11.3 0.00 0.00 0.00 64 1013.6
20260504150106 15 220 4.8 9.7 0.00 0.00 0.00 65 1013.6
20260504141106 13 213 4.8 8.0 0.00 0.00 0.00 69 1013.7
20260504140606 12 245 4.8 11.3 0.00 0.00 0.00 69 1013.9
20260504140106 12 178 1.6 11.3 0.00 0.00 0.00 71 1014.0
20260504130607 11 230 3.2 4.8 0.00 0.00 0.00 79 1014.8
20260504130106 10 248 3.2 4.8 0.00 0.00 0.00 80 1014.7
20260504120107 10 227 1.6 6.4 0.00 0.00 0.00 87 1014.2
20260504110606 8 146 0.0 3.2 0.00 0.00 0.00 89 1015.0
20260504110106 8 190 1.6 4.8 0.00 0.00 0.00 88 1015.4